[[{"header":{"parameterUnit":"m.s-1","parameterCategory":1,"la1":30.2991,"la2":30.254,"lo1":-89.0895,"lo2":-89.0444,"dy":0.0017,"dx":0.0017,"nx":28,"ny":28,"refTime":"2024-06-07T21:00:00:Z","depth":0,"parameterNumber":2,"parameterNumberName":"U-component_of_WINDS"},"data":[0,0,0,0,0,0,0,0,0,0,0,0,0,0,0,0,0,0,0,0,0,0,0,0,0,0,0,0,0,0,0,0,0,0,0,0,0,0,0,0,0,0,0,0,0,0,0,0,0,0,0,0,0,0,0,0,0,0,1.7465,1.7465,0,1.7511,1.7511,1.7512,1.7452,1.745,1.7448,1.7446,1.7498,1.7501,1.7505,0,0,0,0,0,0,0,0,0,0,0,0,0,1.7329,1.7332,1.7465,1.7465,1.7466,1.7511,1.7511,1.7512,1.7452,1.745,1.7447,1.7445,1.7497,1.7501,1.7505,0,0,0,0,0,0,0,0,0,0,0,0,0,1.7383,1.7333,1.7465,1.7441,1.744,1.751,1.7511,1.7512,1.7453,1.745,1.7446,1.7443,1.7496,1.7501,1.7506,1.7603,0,0,1.7521,1.7524,0,0,0,0,0,0,0,0,1.738,1.7388,1.7444,1.7443,1.7441,1.7472,1.7483,1.7543,1.7454,1.7448,1.7446,1.7442,1.7492,1.7498,1.7514,1.7605,1.7608,1.7522,1.7525,1.7527,1.7529,0,0,0,0,0,0,0,1.7377,1.7386,1.7483,1.7445,1.7443,1.743,1.7434,1.7494,1.7488,1.7448,1.7444,1.745,1.7491,1.7509,1.7514,1.7608,1.7522,1.7526,1.7529,1.7531,1.7781,1.7784,0,0,0,0,0,0,1.7375,1.7383,1.7482,1.7484,1.7402,1.7435,1.744,1.7466,1.7487,1.7487,1.7453,1.7447,1.7502,1.7508,1.7516,1.763,1.7527,1.7532,1.7535,1.7777,1.7782,1.7785,0,0,0,0,0,0,1.7372,1.7384,1.748,1.7433,1.7444,1.7441,1.7471,1.7468,1.7486,1.7491,1.749,1.7472,1.7499,1.7509,1.7581,1.7631,1.7534,1.7539,1.7773,1.7779,1.7784,1.7861,0,0,0,0,0,0,1.7369,1.7384,1.742,1.7434,1.7446,1.7543,1.7474,1.7472,1.7494,1.7487,1.7508,1.7509,1.7497,1.7574,1.7586,1.7637,1.7543,1.7769,1.7776,1.7782,1.7854,1.7868,1.788,0,0,0,0,0,1.7364,1.7441,1.7422,1.7434,1.7491,1.7546,1.7553,1.7538,1.7499,1.7535,1.7538,1.7508,1.7624,1.7582,1.7595,1.7648,1.7765,1.7774,1.7781,1.7848,1.7865,1.788,0,0,0,0,0,0,1.7435,1.7443,1.7421,1.7505,1.7525,1.7536,1.7582,1.7557,1.759,1.7582,1.7563,1.7568,1.7645,1.7654,1.7606,1.7743,1.7688,1.7699,1.7734,1.7751,1.7764,1.776,1.7547,0,0,0,0,0,1.746,1.7503,1.7507,1.7581,1.7592,1.7585,1.7609,1.7594,1.7615,1.7624,1.7632,1.7655,1.7696,1.7724,1.7762,1.7854,1.7858,1.7897,1.7911,1.7921,1.7932,1.798,1.7998,1.7812,1.7812,1.7811,0,0,1.7514,1.7523,1.7551,1.7595,1.7609,1.7655,1.7593,1.7644,1.7678,1.7632,1.77,1.7707,1.7731,1.7813,1.785,1.7823,1.7983,1.7932,1.794,1.7944,1.799,1.8008,1.8023,1.7817,1.7816,1.7815,0,0,1.7633,1.7644,1.7706,1.7721,1.7742,1.7736,1.7751,1.7765,1.7767,1.7835,1.7801,1.7842,1.7914,1.7931,1.795,1.8075,1.8048,1.8088,1.8158,1.8206,1.822,1.8233,1.8277,1.8293,1.8098,1.8098,1.8098,0,1.7697,1.7763,1.7742,1.7794,1.7815,1.7773,1.7836,1.7852,1.7885,1.7901,1.787,1.7957,1.7971,1.8056,1.8086,1.8103,1.812,1.8086,1.8219,1.8232,1.8244,1.8286,1.8303,1.8103,1.8102,1.8102,1.8101,0,1.784,1.7886,1.7934,1.7964,1.799,1.8048,1.8037,1.8066,1.8049,1.8047,1.8116,1.813,1.817,1.8189,1.8174,1.8273,1.8255,1.8222,1.8167,1.8267,1.8306,1.8322,1.8109,1.8108,1.8106,1.8105,0,0,1.8008,1.8024,1.8042,1.8055,1.8074,1.811,1.8166,1.8203,1.8228,1.8252,1.8299,1.8359,1.8328,1.8349,1.8336,1.8378,1.8475,1.8339,1.8339,1.8364,1.8583,1.8608,1.8627,1.8457,1.846,1.8462,1.8581,0,1.8127,1.8221,1.8204,1.8297,1.8339,1.8299,1.8347,1.8365,1.8365,1.8401,1.8402,1.8445,1.84,1.8413,1.8452,1.8455,1.8519,1.8446,1.8501,1.8503,1.8496,1.8648,1.8674,1.8786,1.8597,1.8599,1.8601,0,1.8279,1.8306,1.8403,1.8414,1.8431,1.8475,1.8507,1.8542,1.8561,1.8558,1.8581,1.8559,1.8615,1.8558,1.8636,1.8587,1.8608,1.8612,1.8616,1.8621,1.8558,1.8657,1.8822,1.8839,1.8625,1.8623,1.8621,0,1.8391,1.8452,1.8518,1.853,1.8545,1.8576,1.8584,1.86,1.8623,1.8651,1.8666,1.8701,1.8721,1.8749,1.8737,1.8697,1.8817,1.8759,1.8816,1.8817,1.8844,1.8842,1.9015,1.8858,1.8857,1.8857,1.8857,0,1.8527,1.8587,1.8568,1.8608,1.8675,1.8654,1.8721,1.8724,1.8738,1.8779,1.8747,1.8787,1.8769,1.8807,1.8799,1.8864,1.8873,1.8872,1.8869,1.8875,1.8875,1.8889,1.8881,1.8861,1.886,1.886,1.8859,0,1.8664,1.8653,1.8721,1.8729,1.8732,1.8781,1.8788,1.8826,1.8822,1.8874,1.8885,1.888,1.8923,1.8914,1.8963,1.8957,1.9038,1.9026,1.9031,1.9028,1.9085,1.908,1.9273,1.9297,1.9125,1.9126,1.9128,0,1.8751,1.8796,1.8808,1.8832,1.8841,1.8881,1.8903,1.8884,1.891,1.8934,1.8969,1.9009,1.904,1.9111,1.9112,1.9148,1.9136,1.9201,1.9142,1.9146,1.9137,1.9134,1.9139,1.9214,1.9215,1.9217,1.9218,0,1.8906,1.8898,1.8931,1.8962,1.8989,1.9013,1.9035,1.9056,1.9039,1.9069,1.9111,1.9135,1.9183,1.9223,1.9256,1.9265,1.924,1.9237,1.9252,1.9258,1.926,1.9259,1.9064,1.9233,1.9231,1.923,1.923,1.9229,1.9021,1.9059,1.9072,1.911,1.9123,1.9143,1.9179,1.9179,1.9213,1.9249,1.9236,1.9285,1.9302,1.9344,1.9357,1.9395,1.9371,1.9393,1.9398,1.9404,1.941,1.9253,1.9401,1.9401,1.94,1.94,1.94,0,1.9175,1.9181,1.9215,1.9245,1.9274,1.9245,1.9266,1.9293,1.9336,1.9353,1.9384,1.9432,1.947,1.9474,1.951,1.954,1.9529,1.955,1.9548,1.955,1.943,1.9414,1.9558,1.9558,1.9558,1.9558,1.9558,1.9558,1.9258,1.932,1.9314,1.9383,1.9389,1.9435,1.9449,1.9468,1.9481,1.9536,1.9567,1.9568,1.958,1.9616,1.965,1.965,1.9665,1.9691,1.9687,1.9575,1.9559,1.9544,1.9528,1.9694,1.9695,1.9803,1.9804,1.9805]},{"header":{"parameterUnit":"m.s-1","parameterCategory":1,"la1":30.2991,"la2":30.254,"lo1":-89.0895,"lo2":-89.0444,"dy":0.0017,"dx":0.0017,"nx":28,"ny":28,"refTime":"2024-06-07T21:00:00:Z","depth":0,"parameterNumber":3,"parameterNumberName":"V-component_of_WINDS"},"data":[0,0,0,0,0,0,0,0,0,0,0,0,0,0,0,0,0,0,0,0,0,0,0,0,0,0,0,0,0,0,0,0,0,0,0,0,0,0,0,0,0,0,0,0,0,0,0,0,0,0,0,0,0,0,0,0,0,0,2.6074,2.6074,0,2.6086,2.6086,2.6086,2.611,2.611,2.6111,2.6111,2.6121,2.6121,2.6121,0,0,0,0,0,0,0,0,0,0,0,0,0,2.6067,2.6067,2.6074,2.6074,2.6074,2.6086,2.6086,2.6086,2.611,2.611,2.6111,2.6111,2.6121,2.6121,2.6121,0,0,0,0,0,0,0,0,0,0,0,0,0,2.6074,2.6067,2.6074,2.6087,2.6089,2.6086,2.6086,2.6086,2.611,2.611,2.6111,2.6112,2.6121,2.6121,2.612,2.6105,0,0,2.612,2.612,0,0,0,0,0,0,0,0,2.6073,2.6074,2.6085,2.6086,2.6088,2.6097,2.6087,2.6092,2.6109,2.6101,2.6111,2.6112,2.6112,2.6113,2.6113,2.6105,2.6106,2.612,2.6119,2.6119,2.6119,0,0,0,0,0,0,0,2.6073,2.6073,2.6078,2.6085,2.6087,2.6091,2.6093,2.6088,2.6103,2.6102,2.6104,2.6105,2.6113,2.6114,2.6114,2.6106,2.612,2.6119,2.6119,2.6119,2.6083,2.6082,0,0,0,0,0,0,2.6071,2.6073,2.6078,2.6079,2.6082,2.6091,2.6093,2.6093,2.6103,2.6105,2.6105,2.6106,2.6114,2.6114,2.6114,2.6095,2.6119,2.6119,2.6119,2.6084,2.6083,2.6082,0,0,0,0,0,0,2.607,2.6071,2.6078,2.6076,2.6078,2.609,2.6091,2.6093,2.6094,2.6105,2.6107,2.6103,2.6114,2.6115,2.6107,2.6095,2.6119,2.6119,2.6085,2.6083,2.6082,2.6056,0,0,0,0,0,0,2.607,2.6071,2.6066,2.6076,2.6078,2.6071,2.609,2.6093,2.6094,2.6096,2.6103,2.6105,2.6115,2.6107,2.6106,2.6095,2.6119,2.6086,2.6084,2.6083,2.6058,2.6054,2.6051,0,0,0,0,0,2.607,2.6058,2.6065,2.6066,2.6072,2.607,2.6071,2.6083,2.6093,2.6087,2.6094,2.6105,2.6097,2.6106,2.6105,2.6094,2.6086,2.6084,2.6083,2.606,2.6055,2.6051,0,0,0,0,0,0,2.6045,2.606,2.6068,2.6059,2.6063,2.6074,2.6067,2.6078,2.6078,2.608,2.6094,2.6096,2.6085,2.6089,2.6099,2.6078,2.6093,2.6091,2.6076,2.6072,2.6068,2.6067,2.6118,0,0,0,0,0,2.6039,2.6038,2.605,2.6041,2.6042,2.6054,2.6054,2.6063,2.6067,2.6069,2.6075,2.6078,2.6076,2.6074,2.6073,2.6059,2.606,2.6051,2.6048,2.6045,2.6042,2.6033,2.6028,2.6076,2.6076,2.6076,0,0,2.6026,2.6033,2.6032,2.6036,2.604,2.6037,2.6056,2.6052,2.6049,2.6068,2.6061,2.6065,2.6069,2.6058,2.6053,2.6061,2.6029,2.6042,2.604,2.6039,2.603,2.6026,2.6022,2.6075,2.6075,2.6075,0,0,2.6,2.6006,2.5998,2.6002,2.6008,2.6016,2.6014,2.6023,2.6027,2.602,2.6034,2.603,2.6027,2.6028,2.6029,2.6002,2.6011,2.6001,2.5982,2.5973,2.5969,2.5965,2.5954,2.5949,2.5999,2.5999,2.5999,0,2.5982,2.5979,2.5993,2.5988,2.5988,2.6006,2.5997,2.6,2.6005,2.6004,2.6013,2.6008,2.6013,2.6,2.5994,2.5994,2.5991,2.6,2.5968,2.5965,2.5962,2.5951,2.5947,2.5998,2.5998,2.5998,2.5998,0,2.5955,2.5953,2.5946,2.595,2.595,2.5943,2.5955,2.5953,2.5962,2.5968,2.5959,2.5965,2.5964,2.5963,2.5971,2.5951,2.5955,2.5966,2.5981,2.5956,2.5946,2.5942,2.5995,2.5996,2.5996,2.5997,0,0,2.5914,2.5926,2.5923,2.5924,2.5932,2.593,2.5923,2.5923,2.592,2.5923,2.5916,2.5912,2.5922,2.5922,2.5931,2.5923,2.5898,2.5934,2.5934,2.5925,2.5873,2.5864,2.5859,2.5905,2.5904,2.5904,2.5872,0,2.5888,2.5877,2.5889,2.5876,2.5872,2.5889,2.5882,2.5885,2.5891,2.5888,2.5894,2.589,2.5904,2.5904,2.5897,2.5902,2.5887,2.5905,2.5897,2.5896,2.5893,2.5854,2.5844,2.5814,2.5869,2.5868,2.5868,0,2.5856,2.5857,2.5843,2.585,2.5849,2.5843,2.5843,2.5841,2.5844,2.5848,2.5848,2.5858,2.585,2.5866,2.5854,2.5866,2.5863,2.5865,2.5864,2.5862,2.5879,2.5849,2.5805,2.58,2.5862,2.5862,2.5863,0,2.5824,2.5822,2.5813,2.5814,2.5823,2.5818,2.5821,2.5825,2.5824,2.5824,2.5822,2.5821,2.582,2.5817,2.5826,2.5837,2.5812,2.5829,2.5813,2.5813,2.5806,2.5806,2.5759,2.5808,2.5808,2.5808,2.5808,0,2.5792,2.5783,2.5799,2.5793,2.5782,2.5796,2.5784,2.5788,2.5792,2.5786,2.58,2.5794,2.5807,2.5802,2.5809,2.5796,2.5796,2.5798,2.5799,2.5795,2.5795,2.5792,2.5794,2.5807,2.5807,2.5807,2.5807,0,2.5754,2.5765,2.5756,2.5765,2.5767,2.5758,2.5765,2.5759,2.5765,2.5758,2.5756,2.5766,2.5761,2.577,2.5765,2.577,2.5751,2.5757,2.575,2.5751,2.5734,2.5735,2.5683,2.5675,2.5731,2.573,2.573,0,2.5733,2.5725,2.5733,2.5731,2.5733,2.5729,2.5728,2.574,2.5738,2.574,2.5733,2.5729,2.5726,2.5716,2.5722,2.5718,2.5722,2.5704,2.5722,2.5717,2.5719,2.5719,2.5717,2.57,2.5699,2.5699,2.5698,0,2.5692,2.5697,2.5695,2.5695,2.5693,2.5692,2.5693,2.569,2.5703,2.5699,2.5694,2.5692,2.5687,2.5682,2.5679,2.5681,2.569,2.5693,2.5689,2.5684,2.5679,2.5679,2.5738,2.5694,2.5694,2.5695,2.5695,2.5695,2.566,2.5653,2.5658,2.5654,2.5656,2.5656,2.5651,2.5656,2.5653,2.565,2.5658,2.565,2.5651,2.5649,2.5649,2.5642,2.565,2.5644,2.5643,2.564,2.5637,2.5682,2.5642,2.5642,2.5642,2.5643,2.5643,0,2.5618,2.5621,2.5618,2.5619,2.5616,2.5627,2.5628,2.5624,2.5617,2.5619,2.5615,2.5608,2.5603,2.5608,2.5603,2.5596,2.56,2.5594,2.5594,2.5593,2.5631,2.5634,2.5591,2.5591,2.5591,2.5591,2.5591,2.5591,2.5596,2.5585,2.559,2.558,2.5583,2.5576,2.5576,2.5575,2.5576,2.5567,2.5563,2.5567,2.5569,2.5564,2.5559,2.556,2.5557,2.5548,2.5551,2.5586,2.5591,2.5596,2.5599,2.5548,2.5548,2.5513,2.5513,2.5513]}]]